[[{"header":{"parameterUnit":"m.s-1","parameterCategory":1,"la1":30.2991,"la2":30.254,"lo1":-89.0895,"lo2":-89.0444,"dy":0.0017,"dx":0.0017,"nx":28,"ny":28,"refTime":"2024-02-26T03:00:00:Z","depth":0,"parameterNumber":2,"parameterNumberName":"U-component_of_WINDS"},"data":[0,0,0,0,0,0,0,0,0,0,0,0,0,0,0,0,0,0,0,0,0,0,0,0,0,0,0,0,0,0,0,0,0,0,0,0,0,0,0,0,0,0,0,0,0,0,0,0,0,0,0,0,0,0,0,0,0,0,-1.4305,-1.4307,0,-1.4427,-1.4428,-1.4429,-1.4495,-1.4495,-1.4495,-1.4495,-1.4618,-1.4621,-1.4624,0,0,0,0,0,0,0,0,0,0,0,0,0,-1.4129,-1.4132,-1.4305,-1.4307,-1.4308,-1.4426,-1.4428,-1.443,-1.4495,-1.4495,-1.4495,-1.4495,-1.4617,-1.462,-1.4624,0,0,0,0,0,0,0,0,0,0,0,0,0,-1.4223,-1.4133,-1.4305,-1.4355,-1.4361,-1.4426,-1.4428,-1.443,-1.4495,-1.4495,-1.4495,-1.4495,-1.4615,-1.462,-1.4625,-1.4649,0,0,-1.4639,-1.4641,0,0,0,0,0,0,0,0,-1.4218,-1.423,-1.4346,-1.4352,-1.4358,-1.4446,-1.4411,-1.4504,-1.4495,-1.4444,-1.4495,-1.4495,-1.456,-1.4569,-1.4592,-1.4655,-1.466,-1.4639,-1.4642,-1.4644,-1.4645,0,0,0,0,0,0,0,-1.4211,-1.4225,-1.4353,-1.4348,-1.4355,-1.4371,-1.4385,-1.4429,-1.4499,-1.4448,-1.4453,-1.4467,-1.4563,-1.4587,-1.4595,-1.4662,-1.4639,-1.4643,-1.4646,-1.4648,-1.4752,-1.4752,0,0,0,0,0,0,-1.4197,-1.4219,-1.4349,-1.4357,-1.4287,-1.4374,-1.4389,-1.4417,-1.4499,-1.4512,-1.4466,-1.4469,-1.4579,-1.4589,-1.46,-1.4634,-1.4644,-1.4649,-1.4651,-1.4752,-1.4752,-1.4752,0,0,0,0,0,0,-1.4193,-1.4208,-1.4345,-1.4289,-1.4308,-1.4377,-1.4408,-1.442,-1.4443,-1.4513,-1.4525,-1.4478,-1.4579,-1.4593,-1.4637,-1.4639,-1.4651,-1.4655,-1.4752,-1.4752,-1.4752,-1.4703,0,0,0,0,0,0,-1.4187,-1.4206,-1.4216,-1.4289,-1.4311,-1.438,-1.4408,-1.4422,-1.4451,-1.4456,-1.4527,-1.4538,-1.4581,-1.4629,-1.4641,-1.4646,-1.4659,-1.4752,-1.4752,-1.4752,-1.4705,-1.4701,-1.4698,0,0,0,0,0,-1.4181,-1.4197,-1.4216,-1.4232,-1.4325,-1.438,-1.4392,-1.4441,-1.4451,-1.4462,-1.4507,-1.4536,-1.4637,-1.4633,-1.4647,-1.4653,-1.4752,-1.4752,-1.4752,-1.4706,-1.4702,-1.4699,0,0,0,0,0,0,-1.4122,-1.4207,-1.423,-1.427,-1.4317,-1.4391,-1.4406,-1.4435,-1.4479,-1.4482,-1.454,-1.4556,-1.4594,-1.4628,-1.4622,-1.4682,-1.4698,-1.47,-1.4658,-1.4655,-1.4652,-1.4642,-1.4662,0,0,0,0,0,-1.4114,-1.4151,-1.4224,-1.4253,-1.4275,-1.4336,-1.4362,-1.4395,-1.4446,-1.4466,-1.4514,-1.4562,-1.4605,-1.4632,-1.4675,-1.471,-1.4727,-1.4721,-1.4718,-1.4715,-1.4717,-1.4739,-1.4737,-1.4752,-1.4752,-1.4752,0,0,-1.4097,-1.4148,-1.4168,-1.4242,-1.4282,-1.432,-1.4352,-1.4391,-1.4419,-1.4472,-1.4517,-1.4553,-1.4611,-1.465,-1.467,-1.468,-1.4717,-1.4715,-1.4712,-1.4716,-1.4738,-1.4737,-1.4736,-1.4752,-1.4752,-1.4752,0,0,-1.4085,-1.4128,-1.4157,-1.4197,-1.4258,-1.4299,-1.4305,-1.4375,-1.4402,-1.4447,-1.4488,-1.4523,-1.4595,-1.4634,-1.4663,-1.4668,-1.4696,-1.468,-1.4663,-1.4684,-1.4683,-1.4682,-1.4684,-1.4684,-1.4681,-1.4681,-1.4681,0,-1.4057,-1.4115,-1.4168,-1.4204,-1.4235,-1.4286,-1.4315,-1.4352,-1.4423,-1.4443,-1.4454,-1.4546,-1.4588,-1.4638,-1.4639,-1.4661,-1.4671,-1.4672,-1.4679,-1.4679,-1.4679,-1.4681,-1.4681,-1.4679,-1.4679,-1.4679,-1.468,0,-1.4077,-1.4117,-1.4133,-1.4201,-1.4235,-1.4267,-1.4324,-1.4351,-1.4382,-1.4422,-1.4468,-1.452,-1.4575,-1.459,-1.462,-1.4644,-1.4648,-1.4668,-1.4685,-1.4674,-1.4677,-1.4679,-1.4676,-1.4676,-1.4677,-1.4678,0,0,-1.4031,-1.4129,-1.4134,-1.4166,-1.4238,-1.427,-1.4304,-1.4359,-1.4381,-1.4429,-1.446,-1.452,-1.4539,-1.4572,-1.4607,-1.4625,-1.4626,-1.4643,-1.4645,-1.4638,-1.4656,-1.4641,-1.4641,-1.4645,-1.4646,-1.4646,-1.4651,0,-1.403,-1.4096,-1.4144,-1.4191,-1.4229,-1.4278,-1.4308,-1.4355,-1.4393,-1.443,-1.4472,-1.4514,-1.4536,-1.4556,-1.4577,-1.4621,-1.463,-1.4622,-1.4674,-1.4676,-1.4658,-1.4643,-1.4627,-1.4629,-1.4653,-1.4653,-1.4653,0,-1.4037,-1.4084,-1.4135,-1.4203,-1.4221,-1.4247,-1.4301,-1.4336,-1.4391,-1.4417,-1.4455,-1.4491,-1.453,-1.4544,-1.4599,-1.4592,-1.4617,-1.4642,-1.4643,-1.465,-1.4664,-1.4649,-1.4631,-1.4631,-1.4656,-1.4656,-1.4656,0,-1.3999,-1.4075,-1.4115,-1.4141,-1.4221,-1.4239,-1.4273,-1.4328,-1.4358,-1.4405,-1.4425,-1.4476,-1.4503,-1.4542,-1.4591,-1.4596,-1.4641,-1.4658,-1.4664,-1.4662,-1.4671,-1.4669,-1.4656,-1.4686,-1.4686,-1.4686,-1.4686,0,-1.3993,-1.4022,-1.4099,-1.4124,-1.4158,-1.4214,-1.4246,-1.4284,-1.4333,-1.4366,-1.4411,-1.4441,-1.4504,-1.4542,-1.4581,-1.462,-1.4632,-1.4655,-1.4665,-1.4651,-1.4648,-1.4667,-1.4669,-1.4686,-1.4686,-1.4686,-1.4686,0,-1.3955,-1.4008,-1.4056,-1.4128,-1.4147,-1.4169,-1.4231,-1.4257,-1.4298,-1.4339,-1.4352,-1.4416,-1.4463,-1.4516,-1.458,-1.4606,-1.4643,-1.4657,-1.4624,-1.463,-1.4632,-1.4631,-1.4631,-1.4634,-1.4662,-1.4661,-1.4661,0,-1.3947,-1.3971,-1.4046,-1.4072,-1.4105,-1.4146,-1.4177,-1.4232,-1.4263,-1.4327,-1.4345,-1.4396,-1.4439,-1.4511,-1.4563,-1.4613,-1.4629,-1.4626,-1.4636,-1.4622,-1.4629,-1.4627,-1.463,-1.4622,-1.4621,-1.4621,-1.4621,0,-1.3928,-1.3953,-1.3996,-1.4048,-1.4084,-1.4128,-1.4173,-1.4192,-1.4257,-1.4288,-1.4337,-1.4371,-1.4437,-1.4486,-1.4543,-1.4578,-1.461,-1.4617,-1.4621,-1.4607,-1.4587,-1.4598,-1.4616,-1.4617,-1.4617,-1.4617,-1.4617,-1.4618,-1.3906,-1.3929,-1.3986,-1.4032,-1.4073,-1.4114,-1.4142,-1.4187,-1.4229,-1.4287,-1.4318,-1.4366,-1.4421,-1.45,-1.4534,-1.4573,-1.4583,-1.4589,-1.459,-1.4591,-1.4587,-1.4581,-1.4583,-1.4583,-1.4583,-1.4584,-1.4584,0,-1.3889,-1.3928,-1.397,-1.4032,-1.4069,-1.4097,-1.4149,-1.4178,-1.422,-1.4268,-1.431,-1.4366,-1.4415,-1.4471,-1.4523,-1.4544,-1.456,-1.4555,-1.4554,-1.4562,-1.4574,-1.4566,-1.4541,-1.4541,-1.4541,-1.4541,-1.4541,-1.4541,-1.3884,-1.3925,-1.3957,-1.4019,-1.4058,-1.4106,-1.4134,-1.4173,-1.4212,-1.4273,-1.4313,-1.435,-1.4402,-1.4458,-1.4504,-1.452,-1.4537,-1.4528,-1.4547,-1.4558,-1.4561,-1.4564,-1.4557,-1.4531,-1.4531,-1.4532,-1.4532,-1.4532]},{"header":{"parameterUnit":"m.s-1","parameterCategory":1,"la1":30.2991,"la2":30.254,"lo1":-89.0895,"lo2":-89.0444,"dy":0.0017,"dx":0.0017,"nx":28,"ny":28,"refTime":"2024-02-26T03:00:00:Z","depth":0,"parameterNumber":3,"parameterNumberName":"V-component_of_WINDS"},"data":[0,0,0,0,0,0,0,0,0,0,0,0,0,0,0,0,0,0,0,0,0,0,0,0,0,0,0,0,0,0,0,0,0,0,0,0,0,0,0,0,0,0,0,0,0,0,0,0,0,0,0,0,0,0,0,0,0,0,5.8936,5.8939,0,5.9141,5.9143,5.9146,5.9191,5.919,5.9188,5.9187,5.9395,5.9402,5.9408,0,0,0,0,0,0,0,0,0,0,0,0,0,5.8586,5.8592,5.8936,5.8939,5.8941,5.914,5.9143,5.9146,5.9192,5.919,5.9188,5.9186,5.9393,5.9401,5.9409,0,0,0,0,0,0,0,0,0,0,0,0,0,5.8759,5.8594,5.8936,5.8988,5.8995,5.914,5.9143,5.9147,5.9192,5.919,5.9188,5.9186,5.939,5.94,5.941,5.9517,0,0,5.9442,5.9446,0,0,0,0,0,0,0,0,5.8749,5.8772,5.8978,5.8985,5.8993,5.9138,5.9096,5.9271,5.9193,5.9117,5.9187,5.9185,5.9311,5.9328,5.9371,5.9527,5.9536,5.9443,5.9449,5.9453,5.9456,0,0,0,0,0,0,0,5.8737,5.8763,5.9017,5.8981,5.899,5.9002,5.9024,5.9129,5.9224,5.9124,5.9127,5.9151,5.9315,5.9361,5.9376,5.9539,5.9442,5.9452,5.9458,5.9462,5.9797,5.98,0,0,0,0,0,0,5.8716,5.8753,5.9011,5.9023,5.8863,5.901,5.9035,5.9094,5.9223,5.924,5.9153,5.9152,5.9344,5.9364,5.9384,5.9521,5.9453,5.9463,5.9469,5.9794,5.9798,5.98,0,0,0,0,0,0,5.8708,5.8739,5.9002,5.8889,5.8924,5.9018,5.9084,5.9099,5.9145,5.9245,5.9262,5.9182,5.9343,5.9369,5.9485,5.9528,5.9468,5.9477,5.9791,5.9795,5.9799,5.9793,0,0,0,0,0,0,5.8698,5.8736,5.8777,5.889,5.893,5.91,5.9087,5.9105,5.9163,5.9165,5.9277,5.9294,5.9344,5.9469,5.9495,5.9542,5.9485,5.9788,5.9793,5.9798,5.979,5.9797,5.9802,0,0,0,0,0,5.8685,5.8766,5.8779,5.8809,5.8983,5.9102,5.9125,5.9181,5.9166,5.9209,5.9274,5.929,5.9519,5.9481,5.951,5.956,5.9785,5.9791,5.9797,5.9787,5.9795,5.9802,0,0,0,0,0,0,5.8654,5.8781,5.8797,5.8916,5.8998,5.911,5.9165,5.9187,5.9275,5.9273,5.9338,5.9363,5.9475,5.9529,5.9484,5.9673,5.9652,5.9664,5.9634,5.9642,5.9648,5.9634,5.9494,0,0,0,0,0,5.8661,5.8747,5.8854,5.8949,5.8989,5.907,5.9124,5.9161,5.9248,5.9282,5.9355,5.9439,5.953,5.9589,5.9678,5.9797,5.9824,5.9847,5.9853,5.9857,5.9868,5.9939,5.9951,5.9821,5.982,5.982,0,0,5.8677,5.8757,5.8807,5.8945,5.9012,5.9101,5.9099,5.9192,5.9258,5.9296,5.9411,5.9467,5.9565,5.9684,5.974,5.9733,5.991,5.9865,5.9868,5.9876,5.9946,5.9958,5.9969,5.9825,5.9824,5.9823,0,0,5.8751,5.8819,5.8907,5.8976,5.9079,5.9133,5.9154,5.9263,5.9303,5.9419,5.945,5.953,5.9684,5.9754,5.981,5.9913,5.9933,5.994,5.9973,6.0041,6.0051,6.0061,6.0101,6.0114,5.995,5.995,5.995,0,5.8757,5.8891,5.895,5.9043,5.9104,5.9143,5.9234,5.9297,5.9424,5.9465,5.9455,5.9653,5.9721,5.9858,5.9884,5.9926,5.9954,5.9928,6.0045,6.0055,6.0065,6.0104,6.0118,5.995,5.995,5.995,5.995,0,5.8896,5.8989,5.9048,5.9171,5.9238,5.9329,5.9403,5.9464,5.9494,5.955,5.9669,5.9753,5.9861,5.9896,5.9926,6.0039,6.0031,6.0032,6.0013,6.0077,6.0115,6.013,5.9951,5.9951,5.9951,5.995,0,0,5.8956,5.9112,5.9133,5.9191,5.9308,5.9382,5.9475,5.9583,5.9635,5.9721,5.9803,5.9934,5.9937,6.0,6.0038,6.0098,6.0178,6.0092,6.0095,6.0108,6.0312,6.0312,6.0329,6.0191,6.0194,6.0197,6.0305,0,5.9046,5.9216,5.9273,5.9414,5.9502,5.9542,5.9624,5.9706,5.976,5.9843,5.9902,5.9996,5.999,6.003,6.009,6.0156,6.0221,6.0148,6.027,6.0273,6.0247,6.0348,6.0349,6.0446,6.0319,6.0322,6.0324,0,5.9175,5.9265,5.9416,5.9526,5.9565,5.9638,5.9742,5.982,5.9914,5.995,6.0022,6.0057,6.0157,6.0131,6.0272,6.0222,6.0275,6.0314,6.032,6.0335,6.0304,6.0369,6.0478,6.0494,6.0347,6.0345,6.0343,0,5.9208,5.9366,5.9478,5.9526,5.9656,5.9707,5.9763,5.9855,5.9917,6.0008,6.0049,6.015,6.0206,6.0283,6.0345,6.0319,6.0482,6.0459,6.0516,6.0515,6.055,6.0548,6.0673,6.0579,6.0579,6.0579,6.0578,0,5.9305,5.9396,5.9495,5.9564,5.9669,5.9733,5.9834,5.9893,5.9975,6.0056,6.0095,6.0171,6.0247,6.0333,6.0381,6.0493,6.0517,6.055,6.0562,6.0548,6.0544,6.0585,6.0581,6.0583,6.0582,6.0581,6.058,0,5.936,5.9429,5.9554,5.9668,5.9699,5.9771,5.9868,5.9937,5.9993,6.0097,6.0125,6.0213,6.0317,6.0386,6.0517,6.055,6.0673,6.0682,6.0642,6.0648,6.0702,6.0697,6.086,6.0886,6.0772,6.0773,6.0774,0,5.9418,5.949,5.9612,5.967,5.9727,5.982,5.9884,5.995,6.0015,6.0129,6.0185,6.0292,6.0381,6.0545,6.0621,6.0723,6.0737,6.0787,6.0752,6.0737,6.0742,6.0738,6.0747,6.0793,6.0794,6.0795,6.0795,0,5.9516,5.9548,5.9639,5.9743,5.9819,5.9904,5.9989,6.0034,6.0115,6.0187,6.0294,6.0363,6.05,6.0606,6.0715,6.0774,6.08,6.0805,6.0825,6.0812,6.0788,6.0805,6.066,6.0802,6.0801,6.0801,6.08,6.08,5.9577,5.9644,5.9741,5.9842,5.9914,5.9993,6.0065,6.0131,6.0222,6.0339,6.0372,6.0485,6.0579,6.0729,6.079,6.088,6.0874,6.0901,6.0908,6.0915,6.0917,6.0771,6.0899,6.0899,6.0899,6.0899,6.0899,0,5.968,5.9745,5.9837,5.9956,6.0037,6.0053,6.0149,6.0215,6.0314,6.0401,6.0488,6.0613,6.0717,6.0802,6.091,6.0965,6.098,6.0992,6.099,6.1003,6.0914,6.0888,6.0978,6.0978,6.0978,6.0978,6.0978,6.0978,5.9743,5.9858,5.9902,6.0054,6.0118,6.023,6.0284,6.0358,6.0428,6.0566,6.0653,6.0708,6.0795,6.0909,6.1006,6.1028,6.1068,6.1077,6.1103,6.1018,6.1009,6.1001,6.0977,6.1085,6.1085,6.1185,6.1186,6.1187]}]]